This demonstration page uses our WeatherBlox Daily Observations layout. Learn more.

40.92945, -100.16068

Hourly Observations for January 5, 2017

Temp ( °F °C ) Dew Point ( °F °C ) Humidity (%) Winds ( mph kmh ) Pressure ( in mb ) Visibility ( mi km ) Precip ( " mm )
12:15 am 00:15 Partly Cloudy 4 -15.6 1 -17.3 87 87 W 7 11 30.42 1030 10 16.0934 0 0
12:35 am 00:35 Mostly Cloudy 5 -15 2 -16.9 86 86 WNW 6 9 30.36 1028 10 16.0934 0 0
12:55 am 00:55 Cloudy 5 -14.9 2 -16.9 85 85 NW 3 6 30.33 1027 10 16.0934 0 0
1:15 am 01:15 Cloudy 6 -14.5 2 -16.5 85 85 WNW 8 13 30.36 1028 10 16.0934 0 0
1:35 am 01:35 Cloudy 7 -14 3 -16.2 84 84 NNW 7 11 30.33 1027 10 16.0934 0 0
1:55 am 01:55 Cloudy 8 -13.6 3 -16 82 82 NW 9 15 30.36 1028 10 16.0934 0 0
2:15 am 02:15 Cloudy 8 -13.5 2 -16.5 78 78 NNW 10 17 30.36 1028 10 16.0934 0 0
2:35 am 02:35 Cloudy 8 -13.5 1 -17.2 74 74 NNW 9 15 30.36 1028 10 16.0934 0 0
2:55 am 02:55 Cloudy 8 -13.5 0 -17.6 72 72 NNW 8 13 30.36 1028 10 16.0934 0 0
3:15 am 03:15 Cloudy 8 -13.6 -1 -18.1 69 69 NNW 8 13 30.36 1028 10 16.0934 0 0
3:35 am 03:35 Cloudy 7 -14 -1 -18.5 69 69 NNW 8 13 30.33 1027 10 16.0934 0 0
3:55 am 03:55 Cloudy 7 -14 -1 -18.5 69 69 NNW 9 15 30.36 1028 10 16.0934 0 0
4:15 am 04:15 Cloudy 7 -14 -1 -18.5 69 69 NNW 8 13 30.33 1027 10 16.0934 0 0
4:35 am 04:35 Cloudy 7 -14.1 -1 -18.6 69 69 NNW 7 11 30.33 1027 10 16.0934 0 0
4:55 am 04:55 Cloudy 6 -14.2 -1 -18.6 70 70 NW 8 13 30.36 1028 10 16.0934 0 0
5:15 am 05:15 Cloudy 6 -14.2 -1 -18.6 70 70 NW 7 11 30.36 1028 10 16.0934 0 0
5:35 am 05:35 Cloudy 6 -14.2 -1 -18.6 70 70 NW 8 13 30.36 1028 10 16.0934 0 0
5:55 am 05:55 Cloudy 7 -14.1 -1 -18.6 69 69 WNW 7 11 30.36 1028 10 16.0934 0 0
6:15 am 06:15 Cloudy 6 -14.2 -1 -18.4 71 71 WNW 7 11 30.36 1028 10 16.0934 0 0
6:35 am 06:35 Cloudy 6 -14.3 -1 -18.4 71 71 WNW 6 9 30.36 1028 10 16.0934 0 0
6:55 am 06:55 Cloudy 6 -14.3 -1 -18.3 72 72 W 7 11 30.39 1029 10 16.0934 0 0
7:15 am 07:15 Cloudy 6 -14.3 -1 -18.2 73 73 WNW 7 11 30.39 1029 10 16.0934 0 0
7:35 am 07:35 Cloudy 6 -14.5 -1 -18.5 72 72 WNW 8 13 30.39 1029 10 16.0934 0 0
7:55 am 07:55 Cloudy 5 -14.8 -2 -18.7 72 72 W 8 13 30.39 1029 10 16.0934 0 0
8:15 am 08:15 Cloudy 5 -15 -2 -19 72 72 W 9 15 30.36 1028 10 16.0934 0 0
8:35 am 08:35 Partly Cloudy 1 -17 -5 -20.8 73 73 W 7 11 30.39 1029 10 16.0934 0 0
8:55 am 08:55 Sunny 1 -17.2 -5 -20.3 77 77 W 7 11 30.39 1029 10 16.0934 0 0
9:15 am 09:15 Sunny -1 -18.1 -6 -21.2 77 77 W 8 13 30.42 1030 10 16.0934 0 0
9:35 am 09:35 Sunny -1 -18.3 -7 -21.4 77 77 NW 7 11 30.45 1031 10 16.0934 0 0
9:55 am 09:55 Sunny 3 -16.2 -4 -19.9 73 73 NNW 7 11 30.42 1030 10 16.0934 0 0
10:15 am 10:15 Sunny 3 -16.1 -4 -20 72 72 NW 8 13 30.45 1031 10 16.0934 0 0
10:35 am 10:35 Sunny 5 -15.1 -2 -19 72 72 NW 8 13 30.45 1031 10 16.0934 0 0
10:55 am 10:55 Sunny 6 -14.3 -1 -18.5 71 71 NW 7 11 30.42 1030 10 16.0934 0 0
11:15 am 11:15 Sunny 8 -13.2 -1 -18.2 66 66 NW 8 13 30.42 1030 10 16.0934 0 0
11:35 am 11:35 Sunny 9 -12.8 0 -17.7 67 67 WNW 8 13 30.42 1030 10 16.0934 0 0
11:55 am 11:55 Mostly Cloudy 10 -12.5 0 -17.8 65 65 NW 10 17 30.42 1030 10 16.0934 0 0
12:15 pm 12:15 Partly Cloudy 9 -12.7 0 -17.8 66 66 NW 12 19 30.39 1029 10 16.0934 0 0
12:35 pm 12:35 Sunny 9 -12.6 0 -17.7 66 66 NW 12 19 30.39 1029 10 16.0934 0 0
12:55 pm 12:55 Mostly Cloudy 10 -12.3 1 -17.1 68 68 NW 16 26 30.36 1028 10 16.0934 0 0
1:15 pm 13:15 Mostly Cloudy 8 -13.1 0 -17.8 68 68 NW 12 19 30.39 1029 10 16.0934 0 0
1:35 pm 13:35 Mostly Cloudy 10 -12.5 1 -17.5 67 67 NW 12 19 30.39 1029 10 16.0934 0 0
1:55 pm 13:55 Partly Cloudy 9 -13 -1 -18.6 63 63 NNW 12 19 30.36 1028 10 16.0934 0 0
2:15 pm 14:15 Partly Cloudy 10 -12.5 0 -18 64 64 NW 15 24 30.33 1027 10 16.0934 0 0
2:35 pm 14:35 Partly Cloudy 9 -12.7 -3 -19.4 58 58 NW 16 26 30.36 1028 10 16.0934 0 0
2:55 pm 14:55 Sunny 9 -12.8 -3 -19.6 57 57 NW 14 22 30.36 1028 10 16.0934 0 0
3:15 pm 15:15 Sunny 9 -12.9 -4 -19.9 56 56 NW 13 20 30.39 1029 10 16.0934 0 0
3:35 pm 15:35 Partly Cloudy 9 -13 -3 -19.7 58 58 NW 13 20 30.39 1029 10 16.0934 0 0
3:55 pm 15:55 Mostly Cloudy 7 -14.1 -4 -20.2 60 60 NW 9 15 30.39 1029 10 16.0934 0 0
4:15 pm 16:15 Mostly Cloudy 6 -14.5 -5 -20.3 62 62 NW 10 17 30.39 1029 10 16.0934 0 0
4:35 pm 16:35 Mostly Cloudy 7 -14 -4 -20.1 60 60 NW 12 19 30.39 1029 10 16.0934 0 0
4:55 pm 16:55 Partly Cloudy 6 -14.7 -6 -20.9 60 60 NW 9 15 30.39 1029 10 16.0934 0 0
5:15 pm 17:15 Mostly Cloudy 2 -16.5 -7 -21.6 65 65 NW 9 15 30.42 1030 10 16.0934 0 0
5:35 pm 17:35 Partly Cloudy 0 -18 -9 -22.6 67 67 NW 9 15 30.45 1031 10 16.0934 0 0
5:55 pm 17:55 Clear -3 -19.3 -9 -22.9 73 73 NW 7 11 30.45 1031 10 16.0934 0 0
6:15 pm 18:15 Clear -4 -20.1 -11 -23.8 73 73 WNW 7 11 30.42 1030 10 16.0934 0 0
6:35 pm 18:35 Clear -4 -20.2 -10 -23.4 76 76 WNW 7 11 30.48 1032 10 16.0934 0 0
6:55 pm 18:55 Clear -8 -22.2 -14 -25.3 76 76 W 8 13 30.48 1032 10 16.0934 0 0
7:15 pm 19:15 Clear -10 -23.3 -16 -26.4 76 76 W 7 11 30.53 1034 10 16.0934 0 0
7:35 pm 19:35 Clear -9 -23 -15 -26 77 77 W 10 17 30.53 1034 10 16.0934 0 0
7:55 pm 19:55 Clear -10 -23.5 -16 -26.4 77 77 W 7 11 30.53 1034 10 16.0934 0 0
8:15 pm 20:15 Clear -10 -23.3 -15 -26.1 78 78 W 8 13 30.53 1034 10 16.0934 0 0
8:35 pm 20:35 Clear -14 -25.4 -19 -28.6 75 75 WNW 8 13 30.56 1035 10 16.0934 0 0
8:55 pm 20:55 Clear -14 -25.6 -19 -28.6 76 76 NW 7 11 30.53 1034 10 16.0934 0 0
9:15 pm 21:15 Clear -16 -26.5 -21 -29.4 77 77 NW 8 13 30.53 1034 10 16.0934 0 0
9:35 pm 21:35 Clear -18 -27.7 -24 -31 73 73 WNW 6 9 30.56 1035 10 16.0934 0 0
9:55 pm 21:55 Clear -18 -27.7 -24 -31 73 73 W 6 9 30.56 1035 10 16.0934 0 0
10:15 pm 22:15 Clear -16 -26.8 -22 -29.9 75 75 W 12 19 30.56 1035 10 16.0934 0 0
10:35 pm 22:35 Clear -15 -26.3 -21 -29.6 74 74 W 8 13 30.56 1035 10 16.0934 0 0
10:55 pm 22:55 Clear -16 -26.7 -22 -30 74 74 W 8 13 30.53 1034 10 16.0934 0 0
11:15 pm 23:15 Clear -17 -27 -23 -30.4 73 73 W 8 13 30.56 1035 10 16.0934 0 0
11:35 pm 23:35 Clear -17 -27 -22 -30.2 74 74 W 8 13 30.56 1035 10 16.0934 0 0
11:55 pm 23:55 Clear -17 -27.1 -23 -30.6 72 72 W 5 7 30.56 1035 10 16.0934 0 0

Powered by AerisWeather